Flag for Equatorial Guinea Weather past 2 weeks in Malabo, Equatorial Guinea

Now
77 °F

Passing clouds.


Feels Like: 78 °F
Forecast: 74 / 80 °F
Wind: 9 mph from Southwest

Location: Malabo/Fernando Poo

Current Time: Sep 20, 2014 at 7:43:47 PM

Latest Report: Sep 20, 2014 at 7:00 PM


Visibility: N/A

Pressure: 29.92 "Hg

Humidity: 89%

Dew point: 73 °F

Location of MalaboLocation

Historic Weather in Malabo — Graph

°F

Malabo temperature yesterday

Maximum temperature yesterday: 82 °F (at 10:00 AM)
Minimum temperature yesterday: 73 °F (at 10:00 PM)
Average temperature yesterday: 76 °F

Past Weeks' High & Low Weather Summary

 TemperatureHumidityPressure
High84 °F (Sep 6, 1:00 PM)100% (Sep 6, 1:00 AM)30.04 "Hg (Sep 6, 1:00 AM)
Low72 °F (Sep 14, 12:00 AM)70% (Sep 11, 1:00 PM)29.83 "Hg (Sep 5, 4:00 PM)
Average78 °F88%29.92 "Hg
* Reported Sep 5 2:00 PM — Sep 20 2:00 PM, Malabo, Weather by CustomWeather, © 2014

Note: Actual official high and low records may vary slightly from our data, if they occured in-between our weather recording intervals... More about our weather records

Advertising

Malabo weather history for previous 24 hours

 ConditionsComfort  
Time TempWeatherWind HumidityBarometerVisibility
2:00 PM
Sep 20
77 °FThunderstorms. Partly sunny.9 mph94%29.92 "Hg5 mi
1:00 PM75 °FThunderstorms. More clouds than sun.7 mph100%29.95 "Hg4 mi
12:00 PM73 °FThunderstorms. More clouds than sun.2 mph100%29.98 "Hg4 mi
11:00 AM75 °FThunderstorms. More clouds than sun.3 mph94%30.01 "Hg1 mi
10:00 AM75 °FThunderstorms. Broken clouds.3 mph94%30.01 "Hg1 mi
9:00 AM75 °FThunderstorms. Broken clouds.2 mph94%30.01 "Hg3 mi
8:00 AM75 °FDrizzle. Broken clouds.6 mph94%29.98 "Hg3 mi
7:30 AM75 °FThunderstorms. Broken clouds.No wind94%29.95 "Hg5 mi
7:00 AM75 °FThunderstorms. Broken clouds.No wind94%29.95 "Hg5 mi
6:00 AM75 °FPassing clouds.No wind94%29.92 "HgN/A
5:30 AM73 °FPassing clouds.3 mph94%29.92 "HgN/A
5:00 AM73 °FPassing clouds.2 mph100%29.89 "HgN/A
4:00 AM75 °FPassing clouds.6 mph94%29.89 "HgN/A
3:00 AM75 °FPassing clouds.No wind94%29.89 "HgN/A
2:00 AM75 °FPassing clouds.1 mph94%29.92 "Hg5 mi
1:00 AM75 °FPartly cloudy.No wind94%29.92 "Hg5 mi
12:00 AM73 °FPartly cloudy.No wind100%29.95 "Hg5 mi
11:00 PM
Sep 19
73 °FPassing clouds.1 mph94%29.98 "HgN/A
10:00 PM73 °FPassing clouds.3 mph94%29.98 "HgN/A
9:00 PM75 °FPassing clouds.2 mph94%29.95 "HgN/A
8:00 PM75 °FPassing clouds.No wind94%29.95 "Hg5 mi
7:00 PM75 °FPassing clouds.6 mph94%29.89 "Hg5 mi
Weather by CustomWeather, © 2014

See weather overviewHow to use our weather pages